Temp_Advection
nan nan nan nan nan nan nan nan nan nan nan nan nan nan nan nan nan nan nan nan nan nan nan nan nan nan nan nan nan nan nan nan nan nan nan nan nan nan nan nan nan nan nan nan nan
nan -0 -0 -0 -0 0 -0 -0 -0 -0 0 0 0 -0 -0 0 0 -0 -0 -0 0 0 0 -0 0 0 -0 -0 -0 0 -0 -1 -0 -0 0 0 0 -0 -0 -0 -0 0 0 0 nan
nan 0 0 -0 -0 -0 -0 -0 0 -0 -0 0 0 -0 0 0 0 -0 -0 -0 -0 0 0 -0 0 0 -0 0 -0 -0 -0 -0 -0 -0 -0 0 0 0 -0 -0 -1 -1 -1 -0 nan
nan 0 0 -0 -0 0 0 0 0 0 -0 -0 0 0 0 0 -0 -0 -0 -0 -0 0 0 0 0 -0 0 0 -0 -0 -0 -0 -0 -0 0 -0 0 0 0 0 -0 -0 -0 -1 nan
nan -0 0 -0 -0 0 -0 -0 -0 -0 -0 -0 -0 0 0 -0 -0 -0 -0 -0 -0 0 -0 0 -0 -0 -0 -0 0 -0 -0 -0 -0 0 0 0 -0 -0 0 0 1 1 0 0 nan
nan 0 -0 -0 0 0 0 -0 -0 -0 -0 -0 -0 0 0 -0 -0 -0 -0 -0 0 -0 -0 0 -0 -0 -0 0 0 0 0 0 0 0 0 0 0 -0 -0 1 1 1 0 0 nan
nan 0 -0 -0 0 0 0 0 -0 -0 -0 0 -0 0 0 -0 -0 -0 -0 -0 -0 -1 0 0 -0 -0 0 0 0 0 0 -0 -0 -0 0 0 -0 -0 0 1 1 1 0 0 nan
nan 0 0 -0 -0 0 0 0 0 -0 -0 0 0 0 0 0 -0 -0 -0 -0 -0 0 1 0 -0 -0 -0 0 -0 -0 -0 0 0 -0 0 0 0 -0 0 0 0 0 0 -0 nan
nan 0 0 0 -0 -0 0 0 0 0 0 0 0 0 0 0 0 0 0 0 0 1 0 -0 0 -0 0 -0 -0 -0 0 0 0 0 -0 -0 -0 0 0 0 -0 -0 -0 -0 nan
nan 0 0 0 0 -0 -0 0 0 0 -0 -0 -0 -0 -0 0 0 0 0 0 0 0 0 0 -1 -0 0 0 -0 -0 0 0 0 -0 0 -0 -0 0 0 0 0 0 0 -0 nan
nan 0 0 0 0 -0 -0 -0 -0 -0 -0 -0 -0 -0 -0 -0 0 0 0 0 -0 -0 -0 -0 -0 -0 -0 0 -0 -0 0 0 -0 -0 0 -0 -0 -0 0 0 0 -0 -0 -0 nan
nan 0 0 0 0 -0 -0 -0 -0 -0 -0 0 0 -0 -0 -0 0 0 0 -0 -0 -0 -0 0 -0 0 -0 -0 -0 -0 -0 0 0 -0 0 0 -0 -0 -0 -0 -1 -1 -0 -0 nan
nan 0 0 0 0 -0 -0 0 -0 -0 -0 -0 0 -0 -0 0 0 0 0 0 -0 -0 -0 0 -0 -0 0 -0 0 -0 -0 -0 0 0 -0 0 -0 0 -0 -0 -0 -0 -0 -0 nan
nan 0 0 0 0 -0 0 0 0 0 -0 -0 0 0 -0 -0 0 0 0 0 -0 -0 -0 0 -0 -0 0 -0 -0 -0 -0 -0 0 -0 0 -0 0 -0 0 0 -0 -1 -0 -0 nan
nan 0 0 0 0 0 0 0 0 0 0 -0 0 0 0 -0 0 0 0 0 -0 -0 -0 0 -0 -0 0 -0 -0 0 -0 0 -0 -0 0 0 -0 -0 0 -0 -0 -1 -1 -0 nan
nan 0 0 0 0 -0 -0 -0 -0 -0 -0 -0 -0 0 0 0 0 0 0 0 -0 -0 0 -0 -0 -0 0 -0 -0 0 -0 -1 -0 0 0 -0 0 -0 -0 -0 0 0 -0 0 nan
nan 0 0 -0 -0 -0 -0 -0 -0 0 0 0 0 0 -0 0 0 -0 -0 0 -0 -0 -0 -0 -0 -0 0 0 -0 -0 -1 -0 0 -0 0 -0 0 -0 -0 0 0 0 0 1 nan
nan 0 0 -0 -0 -0 -0 -0 0 -0 0 -0 0 0 0 0 -0 -0 0 0 -0 -0 -0 0 -0 -0 -0 0 0 -0 -0 -0 0 -0 0 -0 -0 -0 0 -0 0 0 0 0 nan
nan 0 0 0 -0 0 -0 -0 -0 -0 -0 -0 -0 0 -0 0 -0 -0 -0 -0 -0 -0 -0 -0 0 -0 0 0 0 0 -0 -0 -0 0 0 -0 -1 -0 0 0 0 0 0 0 nan
nan 0 -0 0 -0 0 -0 -0 -0 -0 -0 -0 0 0 0 -0 -0 -0 0 -0 0 -0 -0 -0 0 -0 -0 -0 0 -0 -0 -0 0 0 -0 0 -0 0 0 0 0 0 0 0 nan
nan 0 0 0 0 0 -0 -0 -0 -0 -0 -0 -0 -0 0 0 -0 -0 0 -0 -0 -0 -0 -0 0 -0 -0 -0 0 0 -0 -0 -0 0 1 0 0 0 0 0 -0 -0 -0 -0 nan
nan -0 -0 0 -0 -0 0 -0 -0 0 0 0 -0 -0 0 -0 -0 0 0 0 -0 0 -0 0 -0 0 0 0 0 0 -0 -0 0 0 -0 0 -0 0 0 -0 -0 -0 0 0 nan
nan -0 0 0 -0 -0 -0 -0 0 -0 -0 -0 -0 -0 -0 -0 -0 -0 0 -0 -0 0 0 -0 -0 0 -0 0 -0 -0 0 -0 -0 0 -0 0 0 0 -0 0 0 0 0 0 nan
nan -0 -0 0 -0 -0 0 -0 -0 -0 -0 -0 -0 -0 -0 -0 -0 0 0 -0 -0 0 0 -0 -0 -0 0 0 -0 0 -0 0 -0 -0 -0 -0 -0 0 0 0 0 -0 0 0 nan
nan 0 -0 0 -0 -0 0 0 0 -0 -0 -0 -0 -0 0 -0 0 -0 0 -0 0 -0 -0 0 -0 -0 0 -0 0 0 0 0 0 -0 0 0 0 0 0 -0 -0 -0 0 0 nan
nan -0 -0 0 0 0 -0 -0 0 0 0 -0 0 -0 -0 0 0 0 -0 -0 0 -0 -0 -0 0 -0 -0 -0 -0 0 0 0 -0 0 0 0 0 0 -0 -0 -0 0 -0 -0 nan
nan nan nan nan nan nan nan nan nan nan nan nan nan nan nan nan nan nan nan nan nan nan nan nan nan nan nan nan nan nan nan nan nan nan nan nan nan nan nan nan nan nan nan nan nan
Wind_Speed
12 12 12 13 12 14 17 20 23 25 25 25 24 20 15 15 15 18 25 25 20 15 8 21 18 14 12 11 9 4 2 4 7 8 5 15 6 6 10 17 7 8 11 10 33
13 11 12 14 12 13 15 22 23 25 19 18 19 13 11 11 13 20 21 18 22 19 18 18 21 15 9 10 8 5 3 7 4 4 6 11 10 15 9 9 4 7 8 26 32
11 11 13 13 12 12 15 22 22 20 16 14 11 8 8 9 8 10 17 20 20 21 22 18 16 17 11 11 10 6 4 2 3 4 6 13 7 8 16 3 8 18 25 36 31
12 12 12 12 12 12 14 19 20 18 16 15 11 8 9 11 7 6 15 13 18 23 22 18 13 13 7 6 14 3 5 2 3 4 7 9 15 8 2 3 9 17 28 37 30
12 13 13 12 13 13 13 19 21 18 15 14 9 4 10 11 8 5 6 18 18 19 19 17 16 15 6 8 9 3 3 1 4 7 9 15 6 8 4 7 15 22 31 32 27
12 12 12 12 13 13 14 19 22 18 12 12 5 4 7 5 9 15 18 15 20 19 16 7 15 18 10 10 8 7 3 2 2 5 5 10 4 6 3 15 23 26 29 26 24
10 9 11 11 12 14 16 18 22 15 9 8 4 5 6 9 16 12 13 17 20 20 20 4 7 8 8 5 9 12 5 1 7 5 4 12 5 3 11 20 24 24 25 23 20
7 6 9 11 13 16 18 18 16 12 7 6 2 3 4 8 3 7 9 13 15 15 21 4 12 5 5 15 6 4 4 4 3 6 1 2 4 1 14 23 22 21 21 20 19
8 8 7 9 14 17 21 17 10 8 4 5 5 6 6 10 11 11 4 12 19 17 15 9 2 1 5 7 4 6 5 3 2 3 1 3 3 5 15 19 20 20 19 19 18
11 12 12 13 15 19 19 15 7 9 3 6 7 5 6 9 12 10 9 10 19 24 14 5 9 1 1 5 9 7 6 3 4 2 4 6 3 5 16 16 19 18 18 19 20
13 13 15 17 16 16 14 10 4 4 12 4 8 6 9 9 8 9 10 17 26 16 5 2 4 6 9 4 7 9 6 7 2 4 4 4 4 5 9 13 15 17 19 20 19
16 14 14 14 13 11 8 3 3 3 2 8 8 6 5 8 5 10 6 4 7 6 3 1 4 2 5 4 8 7 7 4 3 5 4 3 3 4 8 7 19 20 21 20 19
14 13 13 12 12 5 3 1 1 2 1 4 6 8 6 6 5 10 7 4 7 5 9 3 5 6 4 3 6 3 9 5 6 1 6 4 5 4 5 12 16 21 20 21 21
12 11 10 9 5 1 3 2 4 1 4 7 2 2 6 7 3 8 8 4 4 6 5 1 6 5 4 4 3 4 4 7 10 4 4 3 3 4 5 6 7 19 21 21 18
10 9 8 7 4 1 1 1 3 2 4 7 3 4 2 3 2 6 10 3 3 6 4 1 4 2 4 0 1 3 5 7 5 5 5 3 4 6 2 5 8 14 21 19 16
8 8 6 4 1 1 1 1 4 5 2 5 6 1 1 3 4 4 6 5 4 5 5 2 4 2 2 4 3 8 7 9 5 3 2 2 4 4 5 5 1 3 10 16 15
5 6 6 3 1 1 2 4 4 4 2 5 3 2 3 2 2 1 2 1 3 3 2 4 4 4 4 6 5 3 6 3 4 3 5 3 2 7 3 1 2 4 4 12 12
3 4 5 2 1 1 3 4 6 3 1 3 3 4 3 1 4 2 3 1 0 4 3 3 3 5 5 2 5 1 2 5 6 4 3 2 5 5 2 2 3 7 11 12 11
3 1 4 3 1 3 2 5 6 4 2 2 4 2 2 2 2 2 3 1 2 6 4 4 2 3 1 0 2 3 1 3 7 3 4 2 6 6 2 2 4 8 9 9 9
3 4 3 1 1 2 3 1 2 4 2 2 2 2 3 4 5 1 0 1 2 1 2 4 4 1 2 1 5 2 5 4 3 4 3 4 5 5 6 7 5 6 9 10 10
3 2 1 1 1 2 3 4 3 3 4 4 2 2 2 2 2 2 2 3 3 3 4 4 3 3 1 3 4 2 1 5 4 3 4 3 6 5 6 8 9 11 10 11 11
3 1 2 2 1 1 2 4 1 1 2 1 2 2 0 3 3 1 3 2 6 3 3 2 4 3 1 1 1 1 2 3 4 2 2 2 5 2 4 9 14 14 13 11 9
2 2 3 2 2 1 3 1 1 1 2 2 2 0 1 1 1 1 2 2 1 1 2 2 2 3 4 2 2 2 2 4 4 3 3 4 4 2 4 7 10 15 13 13 13
2 1 2 3 1 4 3 2 1 1 2 1 2 1 2 3 4 2 1 1 2 1 4 3 3 4 6 3 3 3 3 3 3 3 4 5 3 4 5 7 9 12 13 13 13
2 2 2 2 1 2 2 3 1 1 1 2 1 2 1 1 2 0 1 2 2 1 1 2 3 2 1 0 1 2 4 7 7 4 5 3 6 6 10 10 16 15 14 14 14
2 2 2 2 1 3 1 5 5 1 0 2 1 2 1 3 3 5 3 2 2 0 2 2 3 2 1 2 2 3 6 7 5 3 5 3 7 7 7 16 15 18 18 16 14
2 2 2 1 1 3 3 3 4 5 0 0 2 2 3 0 1 2 3 5 2 1 1 2 4 3 2 2 4 6 9 10 6 6 8 7 9 6 4 14 25 23 21 18 14
Wind_Direction
329 330 326 331 328 331 331 333 324 314 304 304 294 290 269 264 253 242 236 235 239 224 228 216 210 217 202 204 210 200 99 198 197 158 184 160 131 141 142 140 171 178 162 175 166
338 328 326 319 331 340 336 336 330 324 316 297 295 278 262 260 247 240 241 235 229 234 232 214 207 203 196 191 205 179 155 213 205 201 167 169 140 140 145 141 133 146 158 159 166
336 323 323 324 341 340 340 338 339 330 330 324 308 280 252 235 227 250 237 234 231 228 216 214 210 191 209 176 194 191 204 242 233 229 165 148 120 139 135 198 187 174 156 164 168
333 333 326 333 333 331 338 347 348 339 336 332 316 268 223 193 219 229 222 225 228 233 224 203 198 197 184 187 184 197 240 243 293 208 164 150 137 102 107 145 172 178 165 165 169
330 332 337 336 328 331 331 345 346 341 334 334 323 247 189 203 239 238 249 236 228 225 220 187 200 200 187 169 146 191 217 36 294 175 143 138 100 133 75 127 150 161 165 165 167
336 339 339 333 331 328 325 332 343 344 337 336 331 201 205 229 260 269 267 264 235 227 204 109 204 195 194 169 157 175 155 86 67 137 125 123 104 139 114 144 148 162 164 167 169
340 354 358 349 340 338 332 332 340 343 337 335 323 299 235 271 279 274 268 250 224 224 205 231 352 217 182 130 143 134 111 13 21 341 122 116 55 56 148 153 151 159 166 171 173
328 349 4 1 352 347 342 340 331 337 334 344 299 295 245 309 347 300 236 186 206 199 189 231 332 237 204 135 84 99 61 123 324 341 182 146 166 127 157 157 154 164 173 181 182
303 299 319 337 343 343 343 339 331 350 340 330 316 303 309 339 347 3 78 137 151 146 138 284 174 327 154 128 58 23 145 124 138 356 211 68 135 153 166 167 163 174 183 192 194
302 285 286 301 317 328 335 335 315 3 313 316 310 310 1 342 345 10 65 121 142 158 159 79 339 245 88 158 177 162 117 74 133 323 45 79 95 140 176 180 181 184 192 201 206
301 300 295 296 306 316 328 343 358 15 40 29 326 293 315 346 11 46 74 106 146 147 102 80 257 207 171 251 137 124 111 115 3 328 95 65 107 196 173 190 197 199 203 211 215
296 296 300 309 317 316 319 9 41 107 335 1 344 344 353 357 23 42 66 104 150 128 115 9 299 109 119 132 123 105 119 79 38 344 87 66 89 186 186 214 209 207 215 219 221
310 298 300 311 322 305 295 220 160 117 66 335 348 329 339 -0 39 26 28 19 102 93 113 29 285 320 103 106 109 82 140 156 141 154 44 80 341 176 215 228 229 230 234 235 232
319 310 307 319 332 278 275 238 250 261 56 333 356 324 327 333 68 49 45 20 52 103 76 357 294 247 95 97 124 129 138 123 126 93 154 12 239 278 211 225 228 234 232 234 233
327 317 322 330 311 271 261 306 183 150 21 332 318 336 352 18 1 34 36 43 122 135 135 111 305 212 88 61 341 161 112 109 99 89 100 338 71 268 43 247 242 235 234 233 225
334 326 339 357 5 133 13 127 137 44 309 346 331 16 221 304 29 43 50 44 100 54 67 276 250 35 103 39 40 149 86 53 61 80 35 354 121 269 189 218 241 218 232 224 210
323 336 341 19 30 128 119 144 37 71 352 324 347 49 29 25 60 12 84 167 125 110 47 15 356 346 50 72 357 71 81 40 29 18 210 322 104 240 233 270 258 184 153 166 170
293 324 327 5 57 137 142 55 63 234 5 316 316 2 63 55 42 27 56 348 234 104 88 93 346 0 345 90 176 202 113 145 157 172 210 350 224 256 206 35 91 131 132 140 152
247 328 332 340 96 161 149 49 183 233 183 211 271 306 98 62 132 121 197 258 207 192 140 137 341 309 309 105 100 202 16 151 107 34 76 228 285 303 174 115 114 136 148 151 152
248 226 357 345 149 177 81 206 251 199 180 130 352 30 27 170 163 169 143 326 127 236 194 188 89 353 296 141 52 143 148 71 10 125 184 295 279 236 210 196 180 178 172 160 157
221 206 337 229 170 249 119 211 251 248 183 175 274 295 344 8 59 127 177 297 9 11 63 141 100 282 52 17 165 108 41 54 113 102 151 143 255 210 219 186 184 191 175 164 156
234 21 215 182 42 18 127 184 161 237 274 268 195 263 7 1 39 72 146 197 355 31 44 4 113 105 152 277 104 75 142 125 106 208 62 123 274 344 253 188 181 176 167 169 167
228 159 188 198 120 307 282 254 177 169 216 273 257 157 45 81 24 329 62 342 18 130 155 163 30 82 360 6 6 207 174 106 101 86 193 129 267 19 104 153 181 169 167 163 164
226 25 193 217 183 153 159 255 276 205 263 228 277 21 77 20 24 150 112 300 347 100 79 98 103 147 185 197 131 183 173 154 118 113 168 225 258 232 198 185 184 180 172 171 178
243 241 189 243 274 151 145 170 208 257 253 8 71 56 150 139 14 74 217 321 22 0 30 137 112 110 134 0 141 207 199 183 184 177 167 258 210 235 207 193 191 183 179 183 190
251 194 175 152 157 143 305 216 188 234 70 291 169 48 228 158 202 211 162 223 215 7 109 333 150 120 194 352 359 268 235 209 220 220 258 224 268 222 215 192 188 190 188 194 200
261 233 214 291 110 116 221 186 204 143 20 184 133 94 67 126 296 139 186 102 92 170 88 63 121 95 244 332 304 290 216 190 187 201 155 188 223 167 171 193 199 193 197 203 210
Height
1513 1510 1509 1507 1505 1503 1501 1498 1495 1491 1486 1483 1482 1480 1481 1483 1483 1484 1483 1485 1490 1492 1493 1495 1497 1500 1501 1502 1504 1504 1508 1511 1503 1504 1497 1498 1502 1506 1508 1511 1516 1517 1517 1519 1525
1511 1510 1509 1507 1503 1502 1499 1496 1493 1487 1482 1480 1478 1477 1479 1481 1480 1479 1482 1485 1487 1489 1489 1491 1493 1497 1499 1499 1502 1501 1507 1500 1494 1492 1493 1496 1497 1502 1507 1511 1515 1515 1516 1519 1525
1511 1509 1507 1504 1502 1500 1498 1495 1490 1485 1481 1478 1476 1475 1477 1479 1480 1476 1478 1481 1483 1485 1486 1489 1492 1495 1497 1495 1497 1497 1500 1492 1491 1491 1491 1493 1497 1500 1503 1511 1509 1510 1513 1519 1525
1510 1507 1505 1503 1501 1499 1496 1493 1488 1484 1481 1478 1475 1474 1475 1478 1481 1474 1475 1477 1479 1481 1477 1484 1489 1493 1493 1492 1493 1497 1493 1492 1491 1490 1491 1493 1496 1500 1504 1506 1507 1510 1514 1517 1524
1509 1506 1504 1502 1500 1498 1496 1492 1488 1484 1480 1478 1474 1474 1475 1477 1475 1473 1474 1474 1475 1478 1480 1480 1485 1490 1489 1489 1492 1494 1493 1491 1490 1491 1491 1493 1496 1499 1504 1505 1507 1512 1517 1519 1525
1508 1505 1503 1501 1499 1497 1495 1492 1488 1483 1480 1478 1475 1475 1476 1476 1473 1472 1471 1472 1473 1475 1479 1473 1484 1486 1486 1486 1489 1490 1492 1491 1492 1492 1492 1493 1499 1499 1506 1506 1508 1515 1517 1522 1526
1507 1504 1502 1500 1499 1497 1494 1491 1488 1484 1480 1479 1477 1477 1475 1473 1470 1470 1468 1468 1469 1472 1476 1480 1481 1483 1482 1486 1488 1489 1493 1492 1494 1493 1493 1493 1502 1505 1506 1508 1511 1516 1520 1524 1526
1506 1504 1502 1500 1498 1496 1493 1489 1487 1484 1481 1479 1478 1477 1473 1469 1468 1466 1463 1463 1466 1470 1475 1477 1479 1481 1482 1483 1487 1491 1494 1499 1495 1494 1492 1493 1506 1506 1507 1509 1513 1517 1521 1524 1525
1505 1503 1501 1500 1497 1495 1491 1488 1485 1482 1482 1480 1479 1477 1474 1470 1466 1464 1459 1461 1464 1471 1476 1480 1478 1480 1481 1483 1498 1498 1507 1499 1497 1495 1492 1493 1506 1506 1508 1511 1513 1516 1519 1523 1526
1503 1502 1500 1498 1497 1494 1491 1487 1485 1484 1482 1480 1479 1479 1475 1473 1469 1467 1464 1465 1466 1474 1480 1482 1483 1483 1481 1482 1493 1498 1504 1501 1499 1498 1494 1496 1504 1506 1508 1511 1512 1515 1518 1522 1524
1501 1499 1498 1496 1494 1492 1490 1487 1488 1486 1484 1485 1483 1479 1476 1474 1472 1470 1468 1465 1470 1475 1477 1486 1487 1482 1476 1479 1481 1486 1494 1500 1500 1498 1496 1502 1505 1506 1509 1511 1513 1514 1517 1520 1522
1499 1497 1495 1494 1492 1490 1489 1488 1487 1489 1487 1485 1482 1480 1477 1475 1474 1473 1472 1472 1473 1475 1480 1486 1481 1474 1477 1481 1481 1484 1494 1503 1502 1499 1496 1503 1506 1507 1508 1509 1511 1512 1514 1517 1520
1496 1494 1493 1491 1490 1489 1488 1488 1487 1487 1488 1486 1484 1480 1479 1478 1476 1476 1474 1473 1475 1477 1484 1484 1482 1480 1477 1483 1483 1487 1492 1502 1503 1501 1503 1504 1509 1508 1507 1509 1510 1510 1512 1515 1517
1494 1492 1491 1490 1490 1488 1488 1487 1487 1487 1498 1490 1484 1484 1481 1478 1479 1478 1477 1478 1477 1483 1485 1489 1483 1482 1479 1483 1485 1488 1487 1493 1500 1507 1524 1514 1530 1507 1507 1507 1506 1506 1508 1511 1513
1492 1491 1489 1487 1488 1487 1489 1486 1486 1488 1506 1489 1485 1484 1482 1480 1481 1481 1480 1480 1479 1482 1488 1490 1487 1482 1482 1483 1484 1488 1488 1494 1502 1513 1518 1516 1533 1509 1506 1506 1503 1502 1503 1506 1510
1491 1490 1489 1487 1487 1487 1487 1487 1488 1501 1503 1489 1486 1483 1482 1481 1480 1481 1483 1483 1484 1485 1485 1488 1485 1484 1484 1486 1485 1489 1493 1502 1512 1519 1536 1523 1525 1512 1510 1502 1499 1499 1499 1502 1507
1490 1489 1488 1487 1487 1486 1486 1488 1500 1503 1494 1491 1486 1484 1484 1484 1482 1482 1483 1485 1486 1492 1493 1490 1486 1486 1484 1489 1490 1490 1498 1544 1541 1550 1540 1531 1527 1508 1499 1499 1499 1499 1499 1502 1506
1489 1488 1489 1487 1486 1486 1487 1490 1496 1493 1490 1489 1486 1485 1485 1486 1486 1485 1485 1483 1479 1485 1496 1498 1500 1491 1489 1490 1492 1495 1496 1522 1532 1544 1539 1528 1523 1501 1499 1499 1499 1500 1501 1503 1506
1488 1488 1488 1487 1487 1487 1488 1502 1501 1492 1489 1491 1486 1483 1485 1487 1487 1487 1486 1482 1481 1484 1489 1495 1499 1492 1490 1490 1491 1493 1503 1500 1522 1533 1535 1535 1514 1501 1499 1500 1501 1502 1503 1505 1507
1488 1487 1487 1487 1487 1487 1489 1493 1490 1487 1487 1489 1488 1482 1482 1482 1486 1485 1485 1482 1482 1481 1480 1487 1496 1493 1491 1491 1492 1491 1498 1506 1517 1523 1513 1534 1519 1512 1502 1502 1501 1503 1504 1506 1508
1487 1487 1487 1486 1487 1487 1495 1494 1488 1485 1485 1488 1488 1484 1481 1481 1480 1485 1487 1483 1482 1480 1479 1484 1489 1497 1492 1495 1494 1497 1498 1505 1510 1518 1519 1517 1508 1498 1496 1497 1499 1500 1503 1506 1507
1486 1488 1486 1486 1489 1488 1492 1486 1485 1485 1484 1485 1485 1483 1481 1481 1484 1483 1484 1482 1480 1481 1483 1484 1493 1508 1495 1495 1494 1495 1495 1499 1508 1504 1523 1517 1504 1493 1492 1494 1496 1498 1501 1504 1506
1485 1485 1486 1485 1494 1492 1485 1484 1483 1484 1484 1483 1482 1482 1481 1483 1484 1484 1483 1483 1482 1483 1484 1484 1495 1512 1500 1498 1496 1495 1496 1500 1506 1512 1513 1515 1501 1493 1493 1495 1496 1498 1500 1502 1505
1485 1487 1485 1484 1484 1484 1484 1484 1483 1482 1483 1482 1482 1480 1481 1482 1485 1486 1485 1484 1483 1482 1483 1484 1494 1496 1505 1492 1495 1495 1496 1499 1500 1519 1511 1509 1494 1493 1494 1494 1495 1497 1499 1502 1504
1483 1482 1481 1485 1483 1483 1483 1484 1484 1483 1482 1482 1482 1483 1483 1484 1484 1486 1486 1484 1484 1483 1484 1485 1489 1497 1494 1493 1493 1492 1493 1498 1499 1497 1499 1493 1498 1488 1488 1489 1492 1495 1498 1500 1502
1482 1482 1482 1482 1481 1482 1484 1484 1483 1483 1483 1482 1483 1485 1484 1484 1483 1485 1486 1486 1483 1485 1485 1486 1495 1495 1502 1495 1495 1493 1493 1496 1498 1494 1497 1496 1496 1482 1483 1487 1490 1492 1494 1497 1500
1480 1480 1481 1482 1482 1483 1483 1481 1482 1482 1484 1483 1483 1484 1485 1486 1485 1484 1484 1485 1485 1485 1487 1489 1494 1498 1491 1501 1497 1493 1488 1489 1488 1487 1487 1493 1477 1478 1482 1483 1483 1487 1491 1494 1497